Weather reports worldwide

Advertisment
Nottingham/Watnall, United Kingdom (3354): temperature & dewpoint: 09.09.2019 09:00:00 - 15.09.2019 09:00:00 (BST)Nottingham/Watnall, United Kingdom (3354): temperature -20cm & temperature -100cm: 09.09.2019 09:00:00 - 15.09.2019 09:00:00 (BST)Nottingham/Watnall, United Kingdom (3354): wind speed & gusts: 09.09.2019 09:00:00 - 15.09.2019 09:00:00 (BST)Nottingham/Watnall, United Kingdom (3354): wind direction: 09.09.2019 09:00:00 - 15.09.2019 09:00:00 (BST)Nottingham/Watnall, United Kingdom (3354): reduced air pressure: 09.09.2019 09:00:00 - 15.09.2019 09:00:00 (BST)Nottingham/Watnall, United Kingdom (3354): visibility: 09.09.2019 09:00:00 - 15.09.2019 09:00:00 (BST)Nottingham/Watnall, United Kingdom (3354): sunshine duration: 09.09.2019 09:00:00 - 15.09.2019 09:00:00 (BST)Nottingham/Watnall, United Kingdom (3354): precipitation: 09.09.2019 09:00:00 - 15.09.2019 09:00:00 (BST)
Date & Time tt [°C] td [°C] tt -20cm [°C] tt -100cm [°C] ff [km/h] ff [kn] fx [km/h] fx [kn] dd ppp [hPa] vv [km] sd [min] rr [mm]
15.09.2019 09:00:00 14,0 11,8 - - 16 9 - - WSW 1023,9 18 0 0,0
15.09.2019 08:00:00 13,3 11,2 - - 11 6 - - WSW 1023,5 30 0 0,0
15.09.2019 07:00:00 12,3 10,4 - - 9 5 - - W 1023,6 22 0 0,0
15.09.2019 06:00:00 12,1 9,7 - - 9 5 - - WSW 1023,5 25 0 0,0
15.09.2019 05:00:00 12,5 9,7 - - 21 11 - - WSW 1023,4 21 0 0,0
15.09.2019 04:00:00 12,6 10,4 - - 18 10 - - WSW 1023,7 19 0 0,0
15.09.2019 03:00:00 12,9 11,0 - - 18 10 - - WSW 1024,5 17 0 0,0
15.09.2019 02:00:00 13,3 11,2 - - 21 11 - - WSW 1024,9 16 0 0,0
15.09.2019 01:00:00 14,0 11,5 - - 18 10 - - W 1025,5 20 - 0,0
15.09.2019 00:00:00 14,0 11,0 - - 13 7 - - WSW 1025,6 18 0 0,0
14.09.2019 23:00:00 13,8 9,8 - - 13 7 - - SW 1026,1 21 0 0,0
14.09.2019 22:00:00 14,8 9,1 - - 9 5 - - WSW 1026,7 28 0 0,0
14.09.2019 21:00:00 15,5 8,9 - - 9 5 - - SW 1027,0 21 0 0,0
14.09.2019 20:00:00 16,5 8,7 - - 9 5 - - SW 1027,1 13 0 0,0
14.09.2019 19:00:00 17,9 7,9 - - 8 4 - - SW 1027,4 45 18 0,0
14.09.2019 18:00:00 19,6 7,4 - - 16 9 - - SW 1027,7 27 54 0,0
14.09.2019 17:00:00 20,3 7,0 - - 15 8 - - SW 1028,6 30 54 0,0
14.09.2019 16:00:00 19,1 6,8 - - 15 8 - - SW 1029,2 30 18 0,0
14.09.2019 15:00:00 19,3 7,6 - - 15 8 - - SW 1030,2 17 48 0,0
14.09.2019 14:00:00 18,8 7,9 - - 16 9 - - SW 1031,2 35 60 0,0
14.09.2019 13:00:00 18,0 8,2 - - 18 10 - - SW 1032,1 21 60 0,0
14.09.2019 12:00:00 17,0 9,2 - - 11 6 - - SSW 1033,2 22 60 0,0
14.09.2019 11:00:00 14,8 7,9 - - 15 8 - - SW 1033,9 21 60 0,0
14.09.2019 10:00:00 12,6 9,0 15,7 16,2 9 5 - - SW 1034,3 16 60 0,0
14.09.2019 09:00:00 10,0 7,8 - - 8 4 - - SW 1034,7 21 48 0,0
14.09.2019 08:00:00 7,2 6,0 - - 4 2 - - SW 1034,6 15 24 0,0
14.09.2019 07:00:00 6,5 5,4 - - 5 3 - - SW 1034,9 14 0 0,0
14.09.2019 06:00:00 6,9 5,9 - - 4 2 - - WSW 1035,2 16 0 0,0
14.09.2019 05:00:00 6,9 5,8 - - 4 2 - - S 1035,5 19 0 0,0
14.09.2019 04:00:00 7,1 5,8 - - 0 0 - - N 1036,0 21 0 0,0
14.09.2019 03:00:00 7,7 5,2 - - 2 1 - - NNW 1036,3 25 0 0,0
14.09.2019 02:00:00 9,3 6,2 - - 5 3 - - NNW 1036,5 27 0 0,0
14.09.2019 01:00:00 9,3 6,2 - - 5 3 - - N 1037,1 23 - 0,0
14.09.2019 00:00:00 8,6 6,0 - - 5 3 - - NE 1037,1 23 0 0,0
13.09.2019 23:00:00 11,0 6,3 - - 5 3 - - N 1037,1 28 0 0,0
13.09.2019 22:00:00 11,8 7,0 - - 5 3 - - NNW 1037,0 24 0 0,0
13.09.2019 21:00:00 13,2 7,3 - - 9 5 - - NNW 1036,9 26 0 0,0
13.09.2019 20:00:00 14,4 7,5 - - 8 4 - - NW 1036,2 30 6 0,0
13.09.2019 19:00:00 16,5 6,4 - - 8 4 - - NW 1036,0 40 60 0,0
13.09.2019 18:00:00 18,1 6,3 - - 5 3 - - N 1035,7 40 54 0,0
13.09.2019 17:00:00 18,3 6,1 - - 5 3 - - NNW 1035,7 30 54 0,0
13.09.2019 16:00:00 18,4 6,2 - - 9 5 - - NW 1035,9 25 60 0,0
13.09.2019 15:00:00 18,4 7,7 - - 11 6 - - NW 1036,1 26 48 0,0
13.09.2019 14:00:00 18,2 7,3 - - 8 4 - - WNW 1036,0 30 60 0,0
13.09.2019 13:00:00 17,9 7,5 - - 4 2 - - NW 1036,1 25 54 0,0
13.09.2019 12:00:00 16,8 6,9 - - 5 3 - - WNW 1036,3 20 60 0,0
13.09.2019 11:00:00 15,1 7,0 - - 9 5 - - NW 1036,3 27 60 0,0
13.09.2019 10:00:00 13,4 7,1 16,0 16,2 5 3 - - NW 1036,2 30 60 0,0
13.09.2019 09:00:00 11,2 6,2 - - 8 4 - - WNW 1035,7 30 60 0,0
13.09.2019 08:00:00 9,2 7,3 - - 8 4 - - W 1034,8 18 18 0,0
13.09.2019 07:00:00 7,6 6,5 - - 4 2 - - WNW 1034,2 22 0 0,0
13.09.2019 06:00:00 8,1 7,0 - - 4 2 - - WSW 1033,3 20 0 0,0
13.09.2019 05:00:00 9,4 7,8 - - 5 3 - - WSW 1032,7 17 0 0,0
13.09.2019 04:00:00 9,9 8,3 - - 2 1 - - NW 1032,2 18 0 0,0
13.09.2019 03:00:00 11,4 8,8 - - 11 6 - - NW 1031,3 22 0 0,0
13.09.2019 02:00:00 12,0 9,2 - - 5 3 - - NW 1030,6 21 0 0,0
13.09.2019 01:00:00 13,3 10,3 - - 15 8 - - WNW 1029,7 28 - 0,0
13.09.2019 00:00:00 13,9 11,4 - - 9 5 - - W 1028,7 40 0 0,0
12.09.2019 23:00:00 15,3 12,3 - - 15 8 - - NW 1028,1 40 0 0,0
12.09.2019 22:00:00 16,9 15,5 - - 13 7 - - W 1027,0 50 0 0,0
12.09.2019 21:00:00 18,1 14,9 - - 16 9 - - WSW 1025,8 10 0 0,0
12.09.2019 20:00:00 17,5 14,8 - - 21 11 - - WSW 1025,3 6 0 0,0
12.09.2019 19:00:00 19,4 13,4 - - 21 11 - - WSW 1024,4 30 0 0,0
12.09.2019 18:00:00 20,3 12,3 - - 18 10 46 25 WSW 1024,0 30 0 0,0
12.09.2019 17:00:00 21,8 13,4 - - 18 10 46 25 WSW 1023,4 45 24 0,0
12.09.2019 16:00:00 21,2 15,3 - - 21 11 - - SW 1023,3 45 0 0,0
12.09.2019 15:00:00 20,5 15,0 - - 21 11 - - WSW 1023,7 45 0 0,0
12.09.2019 14:00:00 20,3 15,3 - - 18 10 - - SW 1023,7 45 0 0,0
12.09.2019 13:00:00 19,1 14,6 - - 21 11 - - SW 1024,0 40 18 0,0
12.09.2019 12:00:00 18,2 13,9 - - 22 12 - - SW 1024,4 35 24 0,0
12.09.2019 11:00:00 18,6 14,2 - - 18 10 - - WSW 1024,4 23 18 0,0
12.09.2019 10:00:00 15,7 12,8 16,0 16,2 13 7 - - SW 1024,7 16 30 0,0
12.09.2019 09:00:00 15,0 12,3 - - 18 10 - - SW 1024,2 13 48 0,0
12.09.2019 08:00:00 13,3 11,9 - - 16 9 - - SW 1023,8 12 18 0,0
12.09.2019 07:00:00 11,7 11,2 - - 15 8 - - SW 1023,9 11 0 0,0
12.09.2019 06:00:00 10,7 10,2 - - 5 3 - - SSW 1023,5 11 0 0,0
12.09.2019 05:00:00 10,7 10,1 - - 9 5 - - SW 1023,3 12 0 0,0
12.09.2019 04:00:00 10,6 9,7 - - 5 3 - - SW 1023,5 14 0 0,0
12.09.2019 03:00:00 11,6 10,3 - - 8 4 - - WSW 1023,5 18 0 0,0
12.09.2019 02:00:00 11,4 9,9 - - 5 3 - - WSW 1023,1 15 0 0,0
12.09.2019 01:00:00 12,1 10,1 - - 8 4 - - WSW 1022,7 17 - 0,0
12.09.2019 00:00:00 13,0 10,1 - - 9 5 - - WSW 1022,2 25 0 0,0
11.09.2019 23:00:00 13,3 10,4 - - 11 6 - - WSW 1022,1 17 0 0,0
11.09.2019 22:00:00 13,6 10,1 - - 9 5 - - WSW 1021,8 19 0 0,0
11.09.2019 21:00:00 14,0 10,0 - - 5 3 - - W 1021,2 19 0 0,0
11.09.2019 20:00:00 15,2 9,6 - - 8 4 - - W 1020,5 16 0 0,0
11.09.2019 19:00:00 16,9 9,5 - - 9 5 - - WNW 1019,8 22 36 0,0
11.09.2019 18:00:00 17,8 9,0 - - 13 7 - - WNW 1019,3 23 42 0,0
11.09.2019 17:00:00 19,2 10,2 - - 15 8 - - WNW 1018,6 24 60 0,0
11.09.2019 16:00:00 19,0 10,3 - - 16 9 - - WNW 1017,9 40 18 0,0
11.09.2019 15:00:00 18,8 10,7 - - 18 10 - - WNW 1017,2 28 18 0,0
11.09.2019 14:00:00 19,1 12,4 - - 18 10 - - WNW 1016,6 23 30 0,0
11.09.2019 13:00:00 19,2 14,4 - - 15 8 - - WNW 1015,8 24 18 0,0
11.09.2019 12:00:00 19,4 14,8 - - 22 12 - - WSW 1014,7 30 6 0,0
11.09.2019 11:00:00 18,5 15,5 - - 21 11 - - WSW 1014,3 50 6 0,0
11.09.2019 10:00:00 16,8 15,2 16,2 16,4 21 11 - - SW 1014,0 35 0 0,0
11.09.2019 09:00:00 16,3 13,8 - - 21 11 - - SW 1013,8 6 18 0,0
11.09.2019 08:00:00 15,0 13,0 - - 21 11 - - SW 1013,3 40 0 0,0
11.09.2019 07:00:00 14,3 12,5 - - 21 11 - - SW 1013,5 45 0 0,0
11.09.2019 06:00:00 13,1 11,3 - - 21 11 - - SW 1014,0 25 0 0,0
11.09.2019 05:00:00 12,5 10,0 - - 15 8 - - SW 1014,5 25 0 0,0
11.09.2019 04:00:00 12,7 9,9 - - 16 9 - - SW 1015,6 21 0 0,0
11.09.2019 03:00:00 12,0 9,3 - - 16 9 - - SW 1016,2 23 0 0,2
11.09.2019 02:00:00 12,6 8,4 - - 16 9 - - SW 1016,6 30 0 0,0
11.09.2019 01:00:00 12,5 7,9 - - 15 8 - - WSW 1017,5 35 - 0,0
11.09.2019 00:00:00 12,5 7,8 - - 18 10 - - WSW 1017,6 25 0 0,0
10.09.2019 23:00:00 12,8 7,6 - - 15 8 - - WSW 1018,5 22 0 0,0
10.09.2019 22:00:00 13,6 6,6 - - 18 10 - - WSW 1018,6 40 0 0,0
10.09.2019 21:00:00 14,3 8,6 - - 11 6 - - WSW 1018,8 29 0 0,0
10.09.2019 20:00:00 14,4 8,3 - - 5 3 - - SW 1018,7 26 0 0,0
10.09.2019 19:00:00 15,7 7,6 - - 9 5 - - W 1018,7 35 30 0,0
10.09.2019 18:00:00 16,3 7,6 - - 13 7 - - W 1019,0 29 42 0,0
10.09.2019 17:00:00 16,5 7,3 - - 13 7 - - W 1019,2 28 18 0,0
10.09.2019 16:00:00 16,5 7,8 - - 13 7 - - W 1019,4 24 18 0,0
10.09.2019 15:00:00 16,5 7,9 - - 13 7 - - W 1019,3 28 6 0,0
10.09.2019 14:00:00 16,3 8,4 - - 15 8 - - W 1019,4 35 12 0,0
10.09.2019 13:00:00 16,7 9,2 - - 11 6 - - WNW 1019,0 24 36 0,0
10.09.2019 12:00:00 16,5 9,8 - - 11 6 - - NNW 1019,1 26 30 0,0
10.09.2019 11:00:00 15,2 9,2 - - 15 8 - - WNW 1019,2 45 36 0,0
10.09.2019 10:00:00 14,3 11,0 16,0 16,5 9 5 - - W 1019,1 20 24 0,0
10.09.2019 09:00:00 12,7 10,6 - - 8 4 - - W 1018,5 10 36 0,0
10.09.2019 08:00:00 11,5 10,9 - - 4 2 - - W 1018,2 6 48 0,0
10.09.2019 07:00:00 11,2 10,6 - - 2 1 - - WNW 1017,5 2,2 0 0,0
10.09.2019 06:00:00 11,7 11,0 - - 5 3 - - WNW 1016,7 3,0 0 0,0
10.09.2019 05:00:00 11,9 11,2 - - 4 2 - - W 1016,3 4,4 0 0,0
10.09.2019 04:00:00 11,9 11,2 - - 5 3 - - W 1016,1 5 0 0,0
10.09.2019 03:00:00 11,7 11,1 - - 8 4 - - WNW 1015,8 6 0 0,0
10.09.2019 02:00:00 11,5 10,4 - - 5 3 - - W 1015,3 7 0 0,0
10.09.2019 01:00:00 12,0 11,0 - - 2 1 - - SSE 1015,1 7 - 0,0
10.09.2019 00:00:00 12,1 10,8 - - 0 0 - - N 1014,9 7 0 0,0
09.09.2019 23:00:00 12,4 10,7 - - 4 2 - - SW 1014,5 15 0 0,0
09.09.2019 22:00:00 12,5 10,8 - - 4 2 - - SW 1013,8 26 0 0,0
09.09.2019 21:00:00 12,2 10,7 - - 2 1 - - S 1013,1 24 0 0,0
09.09.2019 20:00:00 12,5 10,4 - - 5 3 - - S 1012,5 22 0 0,0
09.09.2019 19:00:00 13,5 10,4 - - 5 3 - - SSW 1011,8 40 0 0,0
09.09.2019 18:00:00 14,2 10,3 - - 11 6 - - S 1011,0 23 0 0,0
09.09.2019 17:00:00 14,7 10,4 - - 9 5 - - S 1010,5 35 0 0,0
09.09.2019 16:00:00 14,6 11,5 - - 11 6 - - S 1010,4 25 0 0,0
09.09.2019 15:00:00 13,2 10,6 - - 11 6 - - S 1010,7 16 0 0,0
09.09.2019 14:00:00 12,8 10,6 - - 11 6 - - S 1010,6 24 0 0,2
09.09.2019 13:00:00 12,6 11,5 - - 9 5 - - S 1010,9 8 0 0,2
09.09.2019 12:00:00 12,3 11,5 - - 13 7 - - SSE 1011,2 8 0 0,4
09.09.2019 11:00:00 11,3 10,7 - - 8 4 - - S 1011,8 6 0 1,8
09.09.2019 10:00:00 11,4 10,1 16,2 16,7 9 5 - - SSE 1012,0 5 0 1,2
09.09.2019 09:00:00 11,5 9,2 - - 9 5 - - SSW 1012,1 9 0 0,2

tt = temperature
td = dewpoint
tt -20cm = temperature -20cm
tt -100cm = temperature -100cm
ff = wind speed
fx = gusts
dd = wind direction
ppp = reduced air pressure
vv = visibility
sd = sunshine duration
rr = precipitation

Next stations